Regional Weather Roundup
Issued by NWS Cleveland, OH

Home | Current Version | Previous Version | Graphics & Text | Print | Product List | Glossary On
Versions: 1 2 3 4 5 6 7 8 9 10 11 12 13 14 15 16 17 18 19 20 21 22 23 24 25 26 27 28 29 30 31 32 33 34 35 36 37 38 39 40 41 42 43 44 45 46 47 48 49 50
000
ASUS41 KCLE 240702
RWRCLE
OHIO REGIONAL WEATHER ROUNDUP
NATIONAL WEATHER SERVICE CLEVELAND, OH
300 AM EDT SUN MAY 24 2015

NOTE: "FAIR" INDICATES FEW OR NO CLOUDS BELOW 12,000 FEET WITH NO
SIGNIFICANT WEATHER AND/OR OBSTRUCTIONS TO VISIBILITY.

OHZ001>008-015>018-024>027-034-035-043-044-240800-
   NORTHWEST OHIO

CITY           SKY/WX    TMP DP  RH WIND       PRES   REMARKS
DEFIANCE       CLEAR     57  50  77 CALM      30.25S
FINDLAY        CLEAR     60  45  57 S6        30.25F
TOLEDO EXPRESS CLEAR     52  45  77 CALM      30.25S
TOLEDO EXEC    CLEAR     57  42  57 S6        30.26F
LIMA           CLEAR     59  45  59 S8        30.26F
$$

OHZ009>014-019>023-028>033-038-089-240800-
   NORTHEAST OHIO

CITY           SKY/WX    TMP DP  RH WIND       PRES   REMARKS
CLE-HOPKINS    CLEAR     51  42  71 S7        30.30S
CLE-LAKEFRONT  CLEAR     61  40  45 SE10      30.27S
CUY CO. ARPT   NOT AVBL
LORAIN-ELYRIA  CLEAR     54  41  61 S5        30.28F
ASHTABULA      CLEAR     47  41  80 S5        30.31F
AKRON-CANTON   CLEAR     55  39  54 S6        30.31S
WOOSTER        CLEAR     50  41  71 CALM      30.31S
MANSFIELD      CLEAR     57  39  51 S5        30.30S
YOUNGSTOWN     CLEAR     56  37  49 S8        30.31F
$$

OHZ042-051>053-060>062-070>072-077>081-240800-
  SOUTHWEST OHIO

CITY           SKY/WX    TMP DP  RH WIND       PRES   REMARKS
CINC-COVINGTON CLEAR     63  47  55 SE8       30.27S
CINC-LUNKEN    CLEAR     52  49  89 CALM      30.28S
HAMILTON       CLEAR     53  48  83 CALM      30.28S
DAYTON         CLEAR     58  46  64 S7        30.28S
WRIGHT-PAT AFB CLEAR     55  49  80 NW2       30.27S
DAYTON GENERAL CLEAR     62  44  51 SE6       30.27S
WILMINGTON     CLEAR     60  42  51 S7        30.28S
$$

OHZ036-037-039>041-045>050-054>059-063>069-073>076-082>088-240800-
  CENTRAL AND SOUTHEAST OHIO

CITY           SKY/WX    TMP DP  RH WIND       PRES   REMARKS
COLUMBUS       PTCLDY    57  46  66 CALM      30.28F
OSU AIRPORT    PTCLDY    57  43  59 E3        30.28F
BOLTON FIELD   NOT AVBL
RICKENBACK AFB NOT AVBL
NEWARK         CLEAR     49  46  90 CALM      30.29F
MARION         CLEAR     54  42  64 S7        30.29F
LANCASTER      CLEAR     51  47  86 S3        30.30F
ZANESVILLE     CLEAR     49  44  83 CALM      30.30F
NEW PHILLY     CLEAR     50  45  83 CALM      30.32S
$$



USA.gov is the U.S. government's official web portal to all federal, state and local government web resources and services.